QPF
0.09 0.07 0.06 0.06 0.06 0.06 0.05 0.07 0.06 0.08 0.08 0.09 0.08 0.04 0.03 0.04 0.05 0.06 0.08 0.08 0.08 0.07 0.07 0.08 0.09 0.08 0.11 0.12 0.10 0.08 0.08 0.09 0.07 0.06 0.05 0.05 0.05 0.05 0.05 0.06 0.06 0.06 0.05
0.09 0.09 0.08 0.05 0.05 0.05 0.04 0.06 0.08 0.09 0.08 0.09 0.10 0.09 0.06 0.05 0.07 0.11 0.13 0.15 0.12 0.09 0.08 0.08 0.10 0.12 0.13 0.12 0.12 0.11 0.11 0.12 0.11 0.08 0.07 0.06 0.05 0.03 0.04 0.05 0.06 0.07 0.05
0.08 0.08 0.06 0.05 0.06 0.06 0.06 0.06 0.09 0.08 0.06 0.06 0.08 0.09 0.07 0.06 0.07 0.09 0.10 0.13 0.11 0.08 0.07 0.09 0.11 0.16 0.17 0.16 0.15 0.16 0.16 0.15 0.13 0.10 0.08 0.08 0.07 0.06 0.06 0.05 0.06 0.07 0.08
0.06 0.07 0.05 0.05 0.06 0.06 0.06 0.07 0.08 0.08 0.07 0.07 0.07 0.06 0.05 0.06 0.05 0.04 0.06 0.07 0.08 0.08 0.08 0.08 0.09 0.11 0.11 0.14 0.14 0.14 0.13 0.12 0.10 0.10 0.08 0.08 0.08 0.07 0.08 0.11 0.13 0.13 0.10
0.07 0.08 0.07 0.06 0.07 0.07 0.08 0.07 0.08 0.09 0.08 0.07 0.05 0.04 0.04 0.05 0.06 0.04 0.03 0.05 0.06 0.07 0.08 0.06 0.05 0.06 0.08 0.11 0.13 0.12 0.13 0.11 0.09 0.09 0.08 0.07 0.07 0.08 0.11 0.10 0.09 0.08 0.08
0.08 0.08 0.08 0.07 0.07 0.07 0.08 0.08 0.10 0.11 0.08 0.07 0.04 0.03 0.04 0.05 0.07 0.05 0.04 0.04 0.04 0.04 0.05 0.05 0.07 0.06 0.05 0.07 0.09 0.08 0.08 0.08 0.09 0.09 0.07 0.05 0.05 0.07 0.07 0.05 0.04 0.06 0.07
0.07 0.06 0.06 0.06 0.06 0.05 0.05 0.07 0.08 0.08 0.07 0.05 0.06 0.05 0.06 0.05 0.05 0.04 0.03 0.03 0.02 0.03 0.05 0.06 0.07 0.06 0.05 0.04 0.04 0.05 0.07 0.10 0.10 0.08 0.07 0.07 0.08 0.09 0.06 0.04 0.04 0.05 0.05
0.06 0.05 0.06 0.07 0.07 0.06 0.06 0.07 0.07 0.07 0.07 0.06 0.07 0.07 0.09 0.09 0.06 0.03 0.03 0.03 0.03 0.03 0.04 0.05 0.05 0.05 0.05 0.06 0.04 0.02 0.04 0.07 0.09 0.06 0.04 0.05 0.06 0.07 0.06 0.04 0.04 0.04 0.04
0.06 0.06 0.07 0.07 0.06 0.05 0.07 0.08 0.06 0.08 0.08 0.06 0.07 0.07 0.07 0.09 0.07 0.04 0.03 0.03 0.03 0.03 0.05 0.05 0.04 0.03 0.04 0.04 0.04 0.03 0.02 0.02 0.05 0.08 0.06 0.05 0.04 0.04 0.04 0.04 0.05 0.05 0.05
0.06 0.06 0.07 0.06 0.06 0.05 0.06 0.06 0.06 0.07 0.08 0.06 0.06 0.06 0.05 0.06 0.06 0.05 0.04 0.03 0.02 0.03 0.04 0.04 0.04 0.04 0.04 0.03 0.03 0.02 0.01 0.01 0.03 0.05 0.05 0.04 0.03 0.03 0.03 0.04 0.04 0.04 0.05
0.06 0.06 0.07 0.06 0.06 0.04 0.04 0.04 0.07 0.08 0.06 0.04 0.04 0.03 0.04 0.05 0.05 0.05 0.04 0.03 0.03 0.03 0.04 0.04 0.04 0.04 0.04 0.03 0.02 0.01 0.00 0.01 0.01 0.02 0.03 0.03 0.03 0.02 0.02 0.03 0.04 0.04 0.04
0.11 0.10 0.06 0.05 0.06 0.06 0.06 0.06 0.07 0.08 0.06 0.04 0.04 0.04 0.05 0.06 0.06 0.06 0.05 0.04 0.03 0.03 0.04 0.03 0.04 0.04 0.04 0.02 0.01 0.00 0.01 0.01 0.02 0.02 0.02 0.02 0.02 0.01 0.01 0.01 0.02 0.03 0.04
0.11 0.10 0.05 0.05 0.06 0.07 0.07 0.07 0.09 0.08 0.06 0.05 0.04 0.05 0.04 0.04 0.04 0.05 0.05 0.04 0.03 0.03 0.03 0.02 0.02 0.03 0.02 0.01 0.01 0.00 0.01 0.01 0.02 0.02 0.02 0.02 0.02 0.02 0.01 0.01 0.01 0.02 0.02
0.07 0.06 0.04 0.04 0.05 0.05 0.05 0.07 0.08 0.07 0.06 0.05 0.04 0.05 0.05 0.03 0.03 0.02 0.03 0.04 0.04 0.03 0.03 0.03 0.02 0.02 0.02 0.01 0.01 0.01 0.01 0.01 0.02 0.03 0.03 0.03 0.02 0.02 0.02 0.02 0.02 0.01 0.01
0.04 0.05 0.04 0.04 0.05 0.04 0.04 0.05 0.06 0.05 0.04 0.04 0.04 0.04 0.04 0.03 0.03 0.02 0.03 0.04 0.05 0.05 0.04 0.03 0.02 0.02 0.04 0.03 0.02 0.02 0.03 0.01 0.02 0.03 0.03 0.03 0.02 0.02 0.02 0.01 0.01 0.01 0.01
0.05 0.08 0.07 0.05 0.04 0.03 0.03 0.05 0.04 0.03 0.02 0.02 0.03 0.03 0.03 0.03 0.03 0.03 0.03 0.04 0.05 0.06 0.05 0.04 0.03 0.02 0.03 0.03 0.04 0.04 0.04 0.02 0.01 0.02 0.02 0.03 0.02 0.02 0.01 0.01 0.01 0.00 0.00
0.06 0.09 0.08 0.06 0.05 0.03 0.03 0.03 0.03 0.03 0.03 0.03 0.02 0.02 0.03 0.03 0.03 0.03 0.03 0.03 0.04 0.05 0.05 0.04 0.03 0.03 0.03 0.03 0.04 0.05 0.04 0.04 0.03 0.02 0.02 0.02 0.02 0.01 0.01 0.01 0.01 0.01 0.00
0.04 0.05 0.06 0.05 0.03 0.03 0.03 0.03 0.03 0.03 0.02 0.03 0.03 0.03 0.02 0.02 0.02 0.03 0.03 0.03 0.05 0.07 0.07 0.06 0.05 0.03 0.03 0.06 0.05 0.06 0.06 0.06 0.08 0.04 0.02 0.03 0.02 0.01 0.01 0.01 0.01 0.00 0.00
0.04 0.04 0.06 0.06 0.04 0.04 0.03 0.04 0.03 0.02 0.02 0.03 0.04 0.03 0.02 0.02 0.01 0.02 0.03 0.03 0.04 0.07 0.09 0.07 0.05 0.04 0.04 0.07 0.07 0.06 0.07 0.08 0.10 0.09 0.07 0.06 0.04 0.02 0.01 0.01 0.01 0.01 0.00
0.03 0.03 0.04 0.05 0.05 0.04 0.04 0.05 0.03 0.03 0.02 0.01 0.02 0.02 0.02 0.01 0.02 0.02 0.02 0.02 0.03 0.05 0.07 0.08 0.07 0.06 0.05 0.06 0.07 0.06 0.05 0.05 0.05 0.04 0.05 0.04 0.02 0.02 0.02 0.02 0.02 0.01 0.01
0.02 0.02 0.03 0.04 0.04 0.03 0.03 0.06 0.05 0.03 0.02 0.02 0.01 0.01 0.01 0.01 0.01 0.03 0.02 0.02 0.03 0.03 0.04 0.05 0.04 0.04 0.05 0.06 0.07 0.07 0.06 0.05 0.04 0.03 0.03 0.03 0.02 0.02 0.01 0.01 0.01 0.01 0.01
0.02 0.03 0.04 0.04 0.03 0.01 0.02 0.05 0.05 0.03 0.03 0.03 0.03 0.01 0.01 0.01 0.01 0.01 0.02 0.03 0.03 0.03 0.03 0.04 0.03 0.03 0.04 0.04 0.06 0.07 0.07 0.07 0.06 0.04 0.03 0.03 0.03 0.03 0.02 0.01 0.01 0.01 0.01
0.03 0.04 0.04 0.03 0.03 0.02 0.02 0.03 0.03 0.03 0.02 0.03 0.03 0.02 0.01 0.00 0.01 0.01 0.02 0.03 0.04 0.04 0.04 0.04 0.04 0.05 0.06 0.07 0.07 0.08 0.08 0.07 0.06 0.04 0.03 0.03 0.03 0.02 0.01 0.01 0.01 0.01 0.01
0.05 0.04 0.05 0.04 0.03 0.02 0.02 0.02 0.02 0.02 0.01 0.01 0.02 0.02 0.01 0.01 0.01 0.02 0.02 0.02 0.03 0.03 0.03 0.03 0.03 0.05 0.06 0.08 0.08 0.08 0.08 0.06 0.05 0.04 0.04 0.03 0.02 0.02 0.01 0.02 0.01 0.01 0.01
0.06 0.04 0.04 0.03 0.02 0.02 0.01 0.01 0.02 0.02 0.01 0.01 0.01 0.01 0.01 0.01 0.02 0.02 0.02 0.01 0.03 0.03 0.02 0.02 0.03 0.03 0.04 0.05 0.05 0.05 0.05 0.04 0.03 0.03 0.03 0.03 0.02 0.01 0.01 0.02 0.02 0.01 0.01
0.04 0.04 0.03 0.02 0.02 0.02 0.01 0.01 0.01 0.02 0.02 0.01 0.01 0.01 0.01 0.01 0.01 0.03 0.02 0.01 0.02 0.02 0.02 0.02 0.02 0.02 0.02 0.03 0.04 0.04 0.05 0.05 0.04 0.04 0.03 0.02 0.02 0.02 0.02 0.01 0.02 0.03 0.02
MSLP
1009.59 1009.60 1009.59 1009.59 1009.61 1009.64 1009.70 1009.78 1009.85 1009.90 1009.92 1009.90 1009.86 1009.84 1009.87 1009.98 1010.20 1010.54 1010.98 1011.48 1012.00 1012.48 1012.91 1013.24 1013.49 1013.67 1013.81 1013.95 1014.09 1014.27 1014.48 1014.71 1014.95 1015.19 1015.40 1015.60 1015.76 1015.90 1016.02 1016.13 1016.21 1016.29 1016.36
1009.92 1009.89 1009.84 1009.80 1009.77 1009.77 1009.81 1009.87 1009.95 1010.01 1010.05 1010.06 1010.05 1010.04 1010.06 1010.15 1010.33 1010.61 1010.98 1011.41 1011.86 1012.30 1012.68 1013.00 1013.25 1013.44 1013.61 1013.78 1013.97 1014.20 1014.46 1014.75 1015.05 1015.34 1015.59 1015.80 1015.97 1016.10 1016.19 1016.27 1016.33 1016.39 1016.45
1010.28 1010.20 1010.12 1010.03 1009.97 1009.94 1009.96 1010.02 1010.11 1010.20 1010.27 1010.32 1010.34 1010.35 1010.38 1010.45 1010.58 1010.79 1011.08 1011.41 1011.78 1012.14 1012.47 1012.75 1012.99 1013.20 1013.39 1013.61 1013.85 1014.14 1014.47 1014.82 1015.17 1015.49 1015.77 1015.99 1016.16 1016.27 1016.33 1016.38 1016.42 1016.47 1016.53
1010.62 1010.51 1010.39 1010.28 1010.19 1010.15 1010.17 1010.24 1010.34 1010.46 1010.57 1010.66 1010.73 1010.77 1010.80 1010.85 1010.94 1011.08 1011.28 1011.52 1011.78 1012.05 1012.31 1012.54 1012.76 1012.97 1013.19 1013.44 1013.73 1014.07 1014.45 1014.84 1015.22 1015.57 1015.86 1016.08 1016.23 1016.31 1016.36 1016.39 1016.41 1016.45 1016.52
1010.93 1010.81 1010.67 1010.55 1010.46 1010.42 1010.43 1010.51 1010.63 1010.77 1010.92 1011.05 1011.15 1011.23 1011.28 1011.32 1011.38 1011.46 1011.57 1011.72 1011.88 1012.06 1012.24 1012.41 1012.60 1012.79 1013.02 1013.28 1013.60 1013.96 1014.36 1014.77 1015.15 1015.50 1015.78 1015.98 1016.11 1016.18 1016.21 1016.22 1016.24 1016.29 1016.37
1011.22 1011.10 1010.97 1010.86 1010.77 1010.74 1010.76 1010.84 1010.96 1011.12 1011.28 1011.44 1011.57 1011.67 1011.74 1011.79 1011.83 1011.88 1011.93 1012.00 1012.08 1012.18 1012.28 1012.40 1012.53 1012.70 1012.91 1013.16 1013.47 1013.83 1014.21 1014.59 1014.96 1015.27 1015.51 1015.68 1015.78 1015.83 1015.84 1015.86 1015.89 1015.95 1016.05
1011.52 1011.42 1011.31 1011.22 1011.16 1011.13 1011.14 1011.21 1011.32 1011.47 1011.63 1011.79 1011.94 1012.06 1012.15 1012.21 1012.26 1012.29 1012.32 1012.34 1012.37 1012.40 1012.45 1012.51 1012.60 1012.72 1012.89 1013.11 1013.38 1013.70 1014.03 1014.36 1014.66 1014.92 1015.11 1015.23 1015.30 1015.32 1015.33 1015.34 1015.38 1015.47 1015.59
1011.82 1011.76 1011.71 1011.65 1011.61 1011.59 1011.59 1011.63 1011.70 1011.81 1011.94 1012.07 1012.21 1012.34 1012.46 1012.55 1012.62 1012.67 1012.70 1012.72 1012.72 1012.73 1012.73 1012.75 1012.79 1012.87 1012.99 1013.16 1013.38 1013.62 1013.88 1014.14 1014.36 1014.54 1014.67 1014.74 1014.76 1014.76 1014.75 1014.77 1014.82 1014.92 1015.06
1012.15 1012.14 1012.14 1012.13 1012.12 1012.10 1012.08 1012.08 1012.10 1012.14 1012.20 1012.30 1012.41 1012.54 1012.67 1012.79 1012.90 1012.99 1013.05 1013.09 1013.11 1013.11 1013.10 1013.10 1013.11 1013.15 1013.22 1013.34 1013.49 1013.66 1013.84 1014.01 1014.16 1014.26 1014.32 1014.33 1014.31 1014.29 1014.27 1014.28 1014.33 1014.43 1014.58
1012.46 1012.52 1012.58 1012.62 1012.64 1012.63 1012.60 1012.55 1012.49 1012.46 1012.45 1012.48 1012.55 1012.66 1012.80 1012.95 1013.11 1013.24 1013.36 1013.44 1013.49 1013.51 1013.51 1013.51 1013.50 1013.52 1013.56 1013.63 1013.72 1013.84 1013.95 1014.05 1014.13 1014.17 1014.17 1014.14 1014.08 1014.02 1013.98 1013.98 1014.02 1014.12 1014.25
1012.70 1012.83 1012.96 1013.07 1013.13 1013.14 1013.09 1013.00 1012.89 1012.78 1012.70 1012.67 1012.69 1012.77 1012.91 1013.08 1013.26 1013.45 1013.61 1013.73 1013.82 1013.87 1013.89 1013.90 1013.90 1013.91 1013.94 1013.99 1014.06 1014.14 1014.21 1014.27 1014.30 1014.30 1014.27 1014.20 1014.12 1014.04 1013.98 1013.96 1013.98 1014.04 1014.15
1012.83 1013.03 1013.23 1013.40 1013.52 1013.56 1013.52 1013.42 1013.28 1013.12 1012.98 1012.89 1012.87 1012.92 1013.03 1013.20 1013.40 1013.61 1013.79 1013.95 1014.07 1014.14 1014.19 1014.21 1014.23 1014.26 1014.30 1014.36 1014.43 1014.51 1014.58 1014.63 1014.65 1014.64 1014.59 1014.51 1014.43 1014.33 1014.26 1014.21 1014.20 1014.23 1014.30
1012.79 1013.05 1013.33 1013.57 1013.76 1013.85 1013.86 1013.77 1013.63 1013.46 1013.29 1013.17 1013.11 1013.13 1013.21 1013.36 1013.54 1013.74 1013.92 1014.08 1014.20 1014.28 1014.34 1014.39 1014.43 1014.49 1014.56 1014.65 1014.76 1014.86 1014.96 1015.03 1015.08 1015.08 1015.05 1014.99 1014.91 1014.82 1014.74 1014.68 1014.64 1014.63 1014.65
1012.57 1012.89 1013.24 1013.56 1013.82 1013.99 1014.07 1014.04 1013.94 1013.80 1013.64 1013.51 1013.43 1013.42 1013.47 1013.57 1013.71 1013.86 1014.00 1014.12 1014.21 1014.28 1014.34 1014.40 1014.47 1014.56 1014.68 1014.82 1014.97 1015.13 1015.28 1015.40 1015.48 1015.52 1015.53 1015.50 1015.44 1015.37 1015.30 1015.24 1015.19 1015.15 1015.14
1012.19 1012.57 1012.98 1013.37 1013.72 1013.99 1014.16 1014.22 1014.20 1014.12 1014.01 1013.90 1013.82 1013.78 1013.79 1013.83 1013.90 1013.97 1014.03 1014.08 1014.12 1014.15 1014.19 1014.25 1014.33 1014.46 1014.62 1014.82 1015.04 1015.25 1015.45 1015.63 1015.76 1015.85 1015.90 1015.91 1015.89 1015.86 1015.81 1015.76 1015.72 1015.68 1015.65
1011.72 1012.14 1012.60 1013.07 1013.50 1013.86 1014.14 1014.32 1014.40 1014.41 1014.37 1014.31 1014.24 1014.19 1014.16 1014.13 1014.11 1014.09 1014.06 1014.02 1013.98 1013.95 1013.95 1014.00 1014.10 1014.25 1014.46 1014.70 1014.96 1015.23 1015.48 1015.69 1015.86 1015.99 1016.08 1016.13 1016.15 1016.16 1016.15 1016.14 1016.13 1016.11 1016.08
1011.23 1011.68 1012.19 1012.71 1013.21 1013.67 1014.05 1014.34 1014.54 1014.65 1014.70 1014.70 1014.66 1014.61 1014.54 1014.45 1014.35 1014.23 1014.10 1013.97 1013.85 1013.76 1013.72 1013.75 1013.85 1014.02 1014.25 1014.52 1014.82 1015.11 1015.37 1015.61 1015.79 1015.93 1016.04 1016.11 1016.17 1016.22 1016.26 1016.30 1016.33 1016.35 1016.36
1010.79 1011.26 1011.80 1012.36 1012.92 1013.45 1013.92 1014.30 1014.61 1014.82 1014.96 1015.02 1015.03 1014.99 1014.91 1014.78 1014.61 1014.42 1014.20 1013.99 1013.80 1013.66 1013.59 1013.60 1013.69 1013.87 1014.11 1014.39 1014.68 1014.97 1015.22 1015.44 1015.60 1015.73 1015.82 1015.90 1015.97 1016.05 1016.13 1016.23 1016.32 1016.40 1016.46
1010.40 1010.91 1011.47 1012.06 1012.65 1013.23 1013.75 1014.22 1014.60 1014.90 1015.12 1015.26 1015.32 1015.31 1015.23 1015.09 1014.89 1014.65 1014.39 1014.13 1013.90 1013.72 1013.63 1013.62 1013.71 1013.88 1014.11 1014.37 1014.64 1014.89 1015.10 1015.27 1015.38 1015.46 1015.51 1015.56 1015.63 1015.71 1015.83 1015.96 1016.11 1016.25 1016.37
1010.06 1010.60 1011.18 1011.79 1012.40 1013.00 1013.56 1014.06 1014.51 1014.88 1015.17 1015.37 1015.50 1015.54 1015.50 1015.38 1015.18 1014.94 1014.67 1014.39 1014.15 1013.96 1013.86 1013.84 1013.92 1014.07 1014.28 1014.51 1014.73 1014.92 1015.07 1015.15 1015.19 1015.19 1015.18 1015.19 1015.22 1015.29 1015.41 1015.57 1015.75 1015.94 1016.12
1009.70 1010.28 1010.88 1011.50 1012.12 1012.73 1013.30 1013.83 1014.32 1014.74 1015.09 1015.37 1015.57 1015.68 1015.70 1015.63 1015.48 1015.27 1015.02 1014.77 1014.53 1014.35 1014.25 1014.22 1014.28 1014.41 1014.59 1014.77 1014.93 1015.05 1015.12 1015.12 1015.07 1014.98 1014.90 1014.83 1014.81 1014.85 1014.95 1015.11 1015.31 1015.52 1015.73
1009.26 1009.89 1010.52 1011.15 1011.77 1012.38 1012.96 1013.50 1014.01 1014.48 1014.89 1015.25 1015.52 1015.72 1015.83 1015.84 1015.76 1015.61 1015.41 1015.19 1014.98 1014.81 1014.71 1014.67 1014.71 1014.81 1014.93 1015.06 1015.16 1015.21 1015.20 1015.12 1014.99 1014.82 1014.66 1014.53 1014.44 1014.43 1014.49 1014.62 1014.80 1015.02 1015.23
1008.68 1009.35 1010.02 1010.67 1011.31 1011.91 1012.50 1013.06 1013.60 1014.11 1014.58 1015.01 1015.38 1015.67 1015.87 1015.98 1015.99 1015.91 1015.77 1015.59 1015.40 1015.24 1015.12 1015.07 1015.07 1015.12 1015.19 1015.27 1015.31 1015.30 1015.23 1015.09 1014.90 1014.67 1014.45 1014.25 1014.11 1014.04 1014.05 1014.13 1014.27 1014.45 1014.64
1007.93 1008.65 1009.36 1010.04 1010.70 1011.32 1011.92 1012.50 1013.08 1013.64 1014.18 1014.68 1015.14 1015.52 1015.82 1016.02 1016.11 1016.09 1016.00 1015.85 1015.67 1015.50 1015.36 1015.26 1015.21 1015.21 1015.23 1015.26 1015.25 1015.21 1015.10 1014.93 1014.71 1014.46 1014.21 1013.97 1013.78 1013.66 1013.60 1013.62 1013.70 1013.82 1013.97
1007.04 1007.81 1008.56 1009.28 1009.96 1010.62 1011.25 1011.86 1012.48 1013.09 1013.69 1014.27 1014.81 1015.28 1015.65 1015.92 1016.07 1016.11 1016.04 1015.90 1015.71 1015.50 1015.32 1015.17 1015.06 1015.00 1014.97 1014.96 1014.93 1014.86 1014.75 1014.59 1014.38 1014.14 1013.88 1013.64 1013.43 1013.26 1013.15 1013.11 1013.11 1013.16 1013.24
1006.09 1006.90 1007.69 1008.44 1009.17 1009.86 1010.52 1011.18 1011.84 1012.50 1013.16 1013.80 1014.39 1014.92 1015.35 1015.66 1015.85 1015.90 1015.84 1015.68 1015.46 1015.21 1014.97 1014.76 1014.60 1014.49 1014.42 1014.37 1014.33 1014.28 1014.20 1014.07 1013.90 1013.70 1013.47 1013.24 1013.03 1012.84 1012.69 1012.58 1012.52 1012.49 1012.49
Thickness
5774 5774 5771 5770 5770 5769 5767 5765 5764 5763 5763 5762 5762 5762 5762 5761 5760 5758 5755 5752 5749 5747 5746 5744 5743 5742 5740 5738 5737 5735 5734 5732 5731 5730 5729 5728 5727 5726 5725 5724 5723 5722 5721
5772 5772 5770 5769 5769 5768 5767 5765 5764 5763 5762 5762 5761 5760 5760 5759 5757 5757 5755 5751 5748 5747 5746 5744 5743 5741 5740 5738 5736 5735 5733 5732 5730 5729 5728 5727 5726 5725 5724 5724 5723 5721 5720
5771 5771 5770 5769 5768 5767 5765 5764 5763 5762 5762 5761 5760 5760 5759 5757 5756 5755 5754 5752 5750 5747 5746 5745 5743 5741 5739 5738 5736 5734 5733 5731 5730 5729 5728 5727 5726 5724 5724 5723 5721 5720 5719
5771 5770 5770 5769 5767 5767 5765 5764 5763 5762 5760 5760 5758 5758 5758 5756 5755 5755 5754 5752 5751 5750 5747 5745 5743 5741 5739 5737 5736 5734 5732 5731 5729 5728 5727 5726 5725 5724 5723 5722 5720 5719 5717
5771 5770 5769 5768 5767 5767 5765 5764 5762 5761 5759 5758 5758 5757 5758 5757 5756 5755 5754 5753 5751 5749 5748 5745 5743 5741 5739 5737 5736 5734 5732 5730 5728 5727 5726 5725 5724 5723 5722 5720 5719 5718 5715
5770 5770 5769 5767 5767 5766 5764 5763 5760 5759 5758 5758 5760 5758 5757 5757 5756 5755 5754 5753 5751 5750 5749 5747 5744 5741 5738 5737 5735 5734 5732 5730 5728 5726 5725 5724 5723 5722 5720 5719 5718 5716 5714
5769 5768 5769 5766 5766 5765 5763 5763 5761 5759 5758 5758 5756 5754 5755 5755 5755 5753 5753 5753 5752 5750 5749 5746 5744 5743 5740 5736 5734 5733 5731 5730 5728 5726 5725 5724 5722 5721 5719 5717 5716 5714 5713
5769 5769 5766 5767 5765 5763 5762 5761 5759 5759 5758 5759 5755 5751 5748 5748 5749 5753 5752 5751 5750 5750 5748 5746 5744 5742 5740 5738 5734 5732 5730 5729 5727 5726 5724 5723 5722 5720 5718 5717 5715 5713 5711
5768 5767 5766 5766 5765 5765 5763 5760 5759 5758 5756 5758 5759 5754 5748 5745 5746 5750 5749 5749 5748 5748 5748 5746 5744 5742 5740 5738 5736 5731 5729 5728 5726 5725 5723 5722 5721 5719 5717 5715 5714 5712 5710
5768 5767 5766 5765 5765 5765 5762 5762 5762 5760 5757 5756 5757 5757 5757 5754 5747 5744 5747 5748 5747 5746 5746 5746 5744 5741 5739 5737 5734 5731 5728 5726 5725 5724 5722 5721 5719 5717 5715 5714 5712 5710 5709
5767 5766 5765 5764 5764 5764 5763 5762 5760 5759 5759 5758 5758 5757 5755 5754 5754 5747 5741 5743 5745 5746 5746 5744 5743 5742 5739 5737 5734 5731 5727 5725 5724 5722 5720 5718 5717 5715 5713 5711 5709 5708 5706
5768 5766 5765 5764 5764 5763 5762 5761 5760 5759 5758 5757 5757 5757 5755 5753 5751 5748 5743 5742 5742 5743 5744 5743 5743 5741 5739 5737 5733 5729 5726 5723 5722 5720 5718 5716 5714 5712 5710 5708 5707 5705 5704
5768 5766 5766 5764 5763 5762 5762 5761 5759 5759 5758 5756 5755 5756 5757 5755 5754 5750 5746 5743 5742 5742 5741 5742 5742 5740 5739 5736 5732 5727 5724 5722 5720 5717 5715 5713 5711 5709 5707 5705 5703 5702 5700
5769 5767 5765 5764 5763 5762 5762 5761 5760 5759 5757 5755 5755 5754 5754 5754 5753 5751 5747 5743 5740 5740 5740 5739 5740 5739 5737 5734 5730 5726 5724 5721 5719 5716 5713 5711 5709 5707 5704 5702 5700 5698 5696
5769 5766 5765 5763 5762 5761 5760 5759 5759 5757 5756 5755 5754 5752 5752 5752 5751 5750 5748 5745 5740 5735 5735 5736 5737 5737 5735 5732 5728 5726 5724 5720 5717 5715 5712 5709 5707 5704 5702 5699 5697 5695 5693
5767 5765 5764 5762 5761 5759 5758 5757 5756 5754 5752 5751 5750 5749 5748 5749 5748 5747 5745 5744 5742 5738 5735 5736 5735 5735 5732 5732 5726 5724 5722 5719 5716 5713 5710 5707 5704 5701 5699 5697 5694 5692 5690
5765 5763 5762 5760 5758 5757 5756 5754 5754 5751 5750 5748 5748 5746 5744 5744 5744 5744 5743 5741 5739 5737 5732 5733 5734 5732 5727 5726 5725 5723 5722 5719 5717 5711 5708 5705 5702 5699 5696 5693 5691 5688 5686
5764 5762 5760 5758 5756 5755 5753 5752 5750 5750 5748 5746 5745 5743 5742 5742 5739 5739 5738 5737 5735 5733 5730 5726 5728 5728 5724 5722 5721 5719 5720 5719 5716 5710 5706 5703 5700 5697 5694 5691 5688 5685 5682
5762 5760 5758 5755 5754 5752 5751 5750 5748 5747 5746 5744 5743 5741 5739 5738 5735 5736 5734 5734 5733 5732 5729 5727 5726 5725 5723 5721 5718 5717 5717 5714 5714 5710 5705 5701 5697 5694 5691 5688 5685 5682 5679
5760 5758 5756 5754 5752 5751 5750 5748 5746 5744 5743 5741 5740 5739 5737 5735 5733 5732 5731 5729 5728 5727 5725 5724 5723 5721 5718 5717 5714 5713 5712 5711 5710 5709 5704 5699 5695 5692 5689 5686 5682 5679 5676
5758 5755 5753 5751 5750 5749 5748 5746 5744 5743 5740 5738 5737 5736 5735 5732 5729 5728 5729 5727 5725 5723 5723 5721 5719 5717 5715 5711 5711 5711 5709 5707 5706 5704 5701 5699 5696 5693 5689 5684 5679 5676 5672
5754 5752 5750 5749 5748 5749 5744 5740 5740 5740 5738 5736 5734 5733 5731 5729 5725 5722 5720 5719 5718 5717 5717 5716 5715 5713 5709 5709 5707 5706 5704 5701 5699 5701 5696 5694 5694 5691 5688 5684 5677 5673 5669
5750 5748 5747 5745 5744 5742 5738 5736 5734 5736 5735 5734 5731 5729 5731 5730 5725 5722 5717 5714 5712 5710 5709 5710 5710 5708 5706 5705 5702 5701 5698 5696 5694 5695 5691 5688 5688 5686 5684 5679 5673 5668 5664
5746 5745 5744 5743 5741 5738 5734 5732 5730 5732 5733 5731 5729 5728 5725 5724 5722 5718 5716 5714 5712 5710 5706 5705 5705 5704 5703 5700 5697 5696 5694 5692 5691 5690 5687 5683 5684 5682 5681 5675 5668 5664 5660
5742 5741 5740 5739 5738 5735 5731 5728 5725 5729 5729 5727 5726 5724 5722 5720 5715 5710 5710 5709 5707 5706 5704 5701 5699 5697 5695 5693 5691 5691 5690 5688 5687 5688 5685 5681 5680 5677 5675 5672 5666 5660 5656
5738 5738 5737 5736 5735 5733 5728 5725 5722 5727 5726 5726 5724 5722 5717 5715 5710 5706 5706 5705 5702 5702 5702 5700 5695 5693 5692 5690 5686 5685 5686 5685 5684 5682 5682 5676 5675 5672 5669 5668 5664 5658 5653